Weather in Pizhanka

Russia / Kirov Oblast     57°27′33″N   48°32′15″E
temp.,
°C
wind,
m/s
gust,
m/s
humid.,
%
clouds,
%
prec.,
mm/h
press.,
hPa
HPBL,
m
8 march, mon
mon800:00−7sse61294100 0.9 994652
03:00−7sse51094100 1.4 991424
06:00−7se3796100 0.7 989275
09:00−6ese1295100 2.0 990186
12:00−5w5795100 1.2 993560
15:00−5w6993100 2.1 995628
18:00−6wnw4796100 0.9 998299
21:00−9nnw3596100 1.3 100095
9 march, tue
tue900:00−12nnw3596100 0.1 100299
03:00−15nnw349795 0.2 100554
06:00−18nnw339892 0.1 100754
09:00−16nnw249591 0.1 1009194
12:00−13nnw348994 0.0 1010436
15:00−13nnw359097 0.1 1011507
18:00−15n489599 0.1 1013284
21:00−17n499594 0.2 1015268
10 march, wed
wed1000:00−22n489782 0.0 1015188
03:00−26n489767 0.0 1017148
06:00−29n489610 0.0 1018152
09:00−26n589310 0.0 1020322
12:00−21n588920 0.0 1020459
15:00−19nnw588616 0.0 1020585
18:00−22nnw34920 0.0 102136
21:00−23nw349718 0.0 102266
11 march, thu
thu1100:00−24wnw44990 0.0 102268
03:00−24w479930 0.0 1021117
06:00−20wnw489795 0.2 1021319
09:00−17wnw479498 0.3 1021377
12:00−11nw5891100 0.1 1021550
15:00−7nw5984100 0.2 1021762
18:00−11wnw478771 0.0 1023122
21:00−14wnw479337 0.0 102595
12 march, fri
fri1200:00−16wnw34932 0.0 102660
03:00−17wnw34931 0.0 102733
06:00−19w33920 0.0 102825
09:00−15wsw35900 0.0 1029179
12:00−11wsw46910 0.0 1029291
15:00−9sw48860 0.0 1028441
18:00−12sw34910 0.0 102750
21:00−15ssw49920 0.0 1027146